Regional Weather Roundup
Issued by NWS

Home | Current Version | Previous Version | Graphics & Text | Print | Product List | Glossary Off
Versions: 1 2 3 4 5 6 7 8 9 10 11 12 13 14 15 16 17 18 19 20 21 22 23 24 25 26 27 28 29 30 31 32 33 34 35 36 37 38 39 40 41 42 43 44 45 46 47 48 49 50

000
ASUS43 KDMX 300707
RWRIA

WEATHER ROUNDUP FOR IOWA
NATIONAL WEATHER SERVICE DES MOINES IA
100 AM CST FRI JAN 30 2015

NOTE: "FAIR" INDICATES FEW OR NO CLOUDS BELOW 12,000 FEET WITH NO
SIGNIFICANT WEATHER AND/OR OBSTRUCTIONS TO VISIBILITY.

* - THESE STATIONS ARE NOT NWS STATIONS...THUS NOT UNDER NWS
QUALITY CONTROL.  THEY ALSO DO NOT REPORT WEATHER SUCH
AS PRECIPITATION OR FOG.

IAZ001>003-012>014-020>022-031>034-043>046-300800-
   NORTHWEST IOWA

CITY           SKY/WX    TMP DP  RH WIND       PRES   REMARKS
CARROLL *      CLEAR     21  18  86 NW9       30.54R WCI  11
CHEROKEE *     CLEAR     21  18  86 N6        30.55S WCI  14
DENISON *      CLEAR     21  19  93 NE7       30.52S WCI  13
LE MARS *      CLOUDY    23  21  93 CALM      30.55F
ORANGE CITY *  CLOUDY    25  19  80 CALM      30.53S
SHELDON *      CLOUDY    21  18  86 NE6       30.52F WCI  14
SIOUX CITY     CLEAR     21  17  84 CALM      30.56S
SPENCER        CLEAR     19  13  77 N7        30.54F WCI  10
STORM LAKE *   CLEAR     19  16  86 N9        30.53S WCI   9
$$

IAZ055>058-069>071-079>083-090>094-300800-
   SOUTHWEST IOWA

CITY           SKY/WX    TMP DP  RH WIND       PRES   REMARKS
ATLANTIC *     CLEAR     23  19  86 N5        30.53S WCI  17
AUDUBON *      CLEAR     21  18  86 N6        30.52S WCI  14
CLARINDA *     CLEAR     23  19  86 N6        30.54F WCI  16
COUNCIL BLFS * CLEAR     23  19  86 NE6       30.52F WCI  16
CRESTON *      CLEAR     23  19  86 N8        30.51S WCI  14
HARLAN  *      CLEAR     21  21 100 N5        30.57S WCI  15
LAMONI         CLEAR     22  18  85 N7        30.50F WCI  13
RED OAK *      CLEAR     23  18  80 N8        30.54S WCI  14
SHENANDOAH *   PTCLDY    25  19  80 N8        30.54F WCI  16
$$

IAZ047>049-059>061-072>074-084-300800-
   CENTRAL IOWA

CITY           SKY/WX    TMP DP  RH WIND       PRES   REMARKS
AMES           PTCLDY    20  14  77 N14       30.53R WCI   7
ANKENY *       MOCLDY    23  18  80 N8        30.54R WCI  14
CHARITON *     CLOUDY    25  19  80 NW9       30.51S WCI  15
DES MOINES     PTCLDY    24  17  74 N10       30.52F WCI  14
GRINNELL*      CLOUDY    23  16  74 NW16      30.51R WCI  10
KNOXVILLE *    CLOUDY    25  18  74 N14       30.50S WCI  13
MARSHALLTOWN   PTCLDY    20  15  81 NW14      30.51R WCI   7
PELLA *        MOCLDY    23  18  80 N12G17    30.53R WCI  12
PERRY *          N/A     23  19  86 N8        30.53F WCI  14
$$

IAZ004>006-015-016-023>025-035-036-300800-
   NORTH CENTRAL IOWA

CITY           SKY/WX    TMP DP  RH WIND       PRES   REMARKS
ALGONA *       CLEAR     18  14  86 N9        30.55S WCI   6
CLARION *      CLEAR     18  14  86 NW15G21   30.53S WCI   3
ESTHERVILLE    CLEAR     16  12  84 N10       30.54R WCI   4
FORT DODGE *   CLEAR     19  10  68 N8        30.55S WCI   9
MASON CITY     CLEAR     16  12  84 NW14      30.53R WCI   2
FOREST CITY *  CLEAR     18  12  79 NW13      30.52S WCI   4
IOWA FALLS *     N/A     19  14  79 NW13      30.53R WCI   7
$$

IAZ007>011-017>019-026>030-037>042-050>054-066-300800-
   NORTHEAST IOWA

CITY           SKY/WX    TMP DP  RH WIND       PRES   REMARKS
CEDAR RAPIDS   CLEAR     23  16  74 NW14      30.47R WCI  11
CHARLES CITY * CLEAR     18  12  79 N16       30.50R WCI   3
CLINTON *      PTCLDY    21  16  79 NW8       30.46R WCI  12
DECORAH *      CLEAR     16  10  79 NW13G20   30.46R WCI   2
DUBUQUE        CLEAR     21  12  68 NW13      30.42R WCI   9
MONTICELLO *   CLEAR     21  14  73 N14       30.45R WCI   8
OELWEIN *      PTCLDY    19  14  79 N13       30.47S WCI   7
WATERLOO       MOCLDY    20  15  81 NW13      30.49S WCI   7
$$

IAZ064-065-067-068-078-300800-
   EAST CENTRAL IOWA

CITY           SKY/WX    TMP DP  RH WIND       PRES   REMARKS
DAVENPORT      CLEAR     23  14  68 NW12      30.44R WCI  12
IOWA CITY      PTCLDY    25  16  68 NW15      30.50R WCI  13
MT. PLEASANT * CLOUDY    27  18  69 NW13G21   30.49R WCI  16
MUSCATINE *    CLEAR     27  18  69 NW10      30.49R WCI  17
QUAD CITIES    CLEAR     26  15  63 NW14      30.45R WCI  14
$$

IAZ062-063-075>077-085>089-095>099-300800-
   SOUTHEAST IOWA

CITY           SKY/WX    TMP DP  RH WIND       PRES   REMARKS
BURLINGTON     CLOUDY    28  19  69 NW13G22   30.47R WCI  17
FAIRFIELD *    CLOUDY    27  18  69 NW17      30.50S WCI  14
FORT MADISON * CLOUDY    27  19  74 NW16      30.49R WCI  14
KEOKUK *       CLOUDY    28  19  69 N12G18    30.49R WCI  18
OSKALOOSA *    CLOUDY    25  18  74 N13       30.52R WCI  13
CENTERVILLE *    N/A     25  21  86 NW8       30.51S WCI  16
OTTUMWA        CLOUDY    25  17  72 N16       30.51R WCI  12
WASHINGTON *   MOCLDY    27  19  74 NW10G18   30.50R WCI  17
$$

ABBREVIATIONS USED IN REMARKS
   TC - TEMPERATURES IN CELSIUS
  WCI - WIND CHILL INDEX
   HX - HEAT INDEX
  VSB - VISIBILITY
$$



USA.gov is the U.S. government's official web portal to all federal, state and local government web resources and services.